Погода в Новоспасске

Россия / Амурская область     49°39′09″N   129°47′02″E
темп.,
°C
ветер,
м/с
пор.,
м/с
влажн.,
%
обл.,
%
осадки,
мм/ч
давл.,
гПа
погр.,
м
18 мая, вт
вт1800:00+13ююв496858 0.0 997142
03:00+13ююз31265100 0.0 997273
06:00+12з4976100 0.0 999262
09:00+16ссз335799 0.0 999470
12:00+19зюз4551100 0.0 10001257
15:00+20зсз5848100 0.1 10001399
18:00+15сз2577100 0.9 1001177
21:00+13в3682100 1.1 1001156
19 мая, ср
ср1900:00+12ю1192100 0.3 100212
03:00+10ссз23855 0.3 100340
06:00+8ссз46605 0.0 1004174
09:00+14ссв54445 0.0 1005536
12:00+18ссз343595 0.0 10051619
15:00+20св1127100 0.0 10042093
18:00+19вюв22339 0.0 10031104
21:00+13вюв33445 0.0 100222
20 мая, чт
чт2000:00+12юв3125227 0.0 1000211
03:00+12ю51270100 0.1 998249
06:00+13ююв478898 1.8 998183
09:00+18сз5660100 1.8 10011053
12:00+19сз5537100 0.0 10041203
15:00+20сз45310 0.0 10041482
18:00+18с47415 0.0 1004322
21:00+13ссв35495 0.0 100670
21 мая, пт
пт2100:00+11ссв324914 0.0 100723
03:00+10с225099 0.0 100818
06:00+9ссв7136584 0.0 1009388
09:00+13ссв595638 0.0 1010623
12:00+17с6638100 0.0 10101125
15:00+19ссв45285 0.0 10081289
18:00+18ссв46335 0.0 1008456
21:00+13с47405 0.0 1009117
22 мая, сб
сб2200:00+10ссв35425 0.0 100971
03:00+10с115999 0.1 100811
06:00+11вюв1266100 0.3 100887
09:00+18юв57475 0.3 1007661
12:00+23ююв7840100 0.0 10051013
15:00+25юв7940100 0.0 1002812
18:00+24ююв9164213 0.0 1000609
21:00+20ююв918445 0.0 1001476